Location: Drocourt
(49.0571°N, 1.7669°E)
Time: 23:37:35
(UTC+00:00)

SR - Pass Details

Date: 16 April 2024
Orbit: 579 x 859 km, 66.7° (Epoch: 25 May)

Event Time Altitude Azimuth Distance (km) Brightness Sun altitude
Rises 04:57:50 0° 265° (W) 3,301 - -1.0°
Exits shadow 04:58:01 - 266° (W) 3,241 ? -1.0°
Reaches altitude 10° 05:00:59 10° 282° (WNW) 2,323 ? -0.5°
Maximum altitude 05:04:49 20° 329° (NNW) 1,691 ? 0.1°
Drops below altitude 10° 05:08:27 10° 15° (NNE) 2,192 ? 0.7°
Sets 05:11:20 0° 33° (NNE) 3,056 ? 1.1°
